Location: Unspecified
(0.0000°N, 0.0000°E)
Time: 20:00:56
(UTC+00:00)

STARLINK-1013 - Pass Details

Date: 18 January 2020
Orbit: 428 x 429 km, 53.0° (Epoch: 26 February)

Event Time Altitude Azimuth Distance (km) Brightness Sun altitude
Rises 18:30:24 0° 252° (WSW) 2,376 9.9 -4.8°
Enters shadow 18:57:31 -44° 138° (SE) 9,523 9.8 -11.1°
Exits shadow 19:12:43 -69° 101° (E) 12,362 10.4 -14.6°
